RYR84KK LEAM-EBCI

Flight info

Callsign RYR84KK
Flight time N/A
Altitude 38000
Route ESILA N865 VTB DCT RBO DCT OSTIX DCT GASMO DCT DGO N858 ABRIX DCT CNA DCT ADABI/N0434F340 DCT BOKNO UN858 VANAD UN874 BAMES UT191 PODEM UN873 BAZOS DCT BELDI DCT VEKIN Z173 ARVOL
Aircraft B38M/M-SADE3FGILRWY/SB1

Departure

Time 2026-04-22 11:22
Airport Almería Airport (LEAM)

Arrival

Time N/A
Airport Brussels South Charleroi Airport (EBCI)
Time Latitude Longitude Altitude Speed Heading
2026-04-22 11:12 36.84655 -2.37251 65 ft 0 kts 112°
2026-04-22 11:18 36.84654 -2.37248 64 ft 2 kts 112°
2026-04-22 11:19 36.84614 -2.37213 69 ft 14 kts 147°
2026-04-22 11:19 36.84622 -2.37050 69 ft 26 kts 74°
2026-04-22 11:19 36.84616 -2.36820 68 ft 28 kts 80°
2026-04-22 11:19 36.84673 -2.36581 65 ft 29 kts 73°
2026-04-22 11:20 36.84733 -2.36331 68 ft 31 kts 73°
2026-04-22 11:20 36.84798 -2.36073 60 ft 32 kts 73°
2026-04-22 11:20 36.84853 -2.35838 66 ft 29 kts 73°
2026-04-22 11:20 36.84913 -2.35596 60 ft 30 kts 72°
2026-04-22 11:21 36.84919 -2.35348 65 ft 30 kts 135°
2026-04-22 11:21 36.84780 -2.35356 62 ft 10 kts 260°
2026-04-22 11:21 36.84756 -2.35523 60 ft 49 kts 257°
2026-04-22 11:21 36.84578 -2.36263 57 ft 127 kts 252°
2026-04-22 11:22 36.84267 -2.37547 280 ft 171 kts 252°
2026-04-22 11:22 36.83930 -2.38968 1285 ft 166 kts 251°
2026-04-22 11:22 36.83584 -2.40359 2235 ft 175 kts 252°
2026-04-22 11:22 36.83197 -2.41902 2860 ft 200 kts 252°
2026-04-22 11:23 36.82761 -2.43665 3497 ft 224 kts 252°
2026-04-22 11:23 36.82514 -2.45649 4278 ft 245 kts 277°
2026-04-22 11:23 36.83183 -2.47564 5452 ft 242 kts 304°
2026-04-22 11:23 36.84353 -2.49147 6395 ft 256 kts 315°
2026-04-22 11:24 36.85855 -2.50513 7058 ft 277 kts 323°
2026-04-22 11:24 36.87506 -2.51880 7814 ft 289 kts 323°
2026-04-22 11:24 36.89185 -2.53285 8793 ft 294 kts 323°
2026-04-22 11:24 36.90900 -2.54730 9658 ft 300 kts 323°
2026-04-22 11:25 36.92650 -2.56211 10413 ft 309 kts 322°
2026-04-22 11:25 36.94483 -2.57768 10874 ft 329 kts 323°
2026-04-22 11:25 36.96426 -2.59421 11239 ft 349 kts 323°
2026-04-22 11:25 36.98487 -2.61176 11528 ft 368 kts 322°
2026-04-22 11:26 37.00663 -2.63028 11833 ft 386 kts 323°
2026-04-22 11:26 37.02917 -2.64949 12260 ft 397 kts 323°
2026-04-22 11:26 37.05196 -2.66893 12960 ft 397 kts 322°
2026-04-22 11:26 37.07487 -2.68849 13546 ft 401 kts 322°
2026-04-22 11:27 37.09805 -2.70826 14088 ft 405 kts 322°
2026-04-22 11:27 37.12137 -2.72818 14653 ft 407 kts 322°
2026-04-22 11:27 37.14482 -2.74823 15264 ft 408 kts 322°
2026-04-22 11:27 37.16824 -2.76829 15966 ft 409 kts 322°
2026-04-22 11:28 37.19185 -2.78849 16561 ft 412 kts 322°
2026-04-22 11:28 37.21530 -2.80859 17150 ft 414 kts 323°
2026-04-22 11:28 37.23912 -2.82901 17743 ft 416 kts 323°
2026-04-22 11:28 37.26301 -2.84953 18285 ft 418 kts 323°
2026-04-22 11:29 37.28708 -2.87020 18724 ft 420 kts 323°
2026-04-22 11:29 37.31127 -2.89100 19147 ft 422 kts 323°
2026-04-22 11:29 37.33558 -2.91191 19532 ft 424 kts 323°
2026-04-22 11:29 37.35998 -2.93293 19919 ft 426 kts 323°
2026-04-22 11:30 37.38453 -2.95408 20273 ft 429 kts 323°
2026-04-22 11:30 37.40918 -2.97534 20628 ft 431 kts 323°
2026-04-22 11:30 37.43397 -2.99673 20980 ft 433 kts 323°
2026-04-22 11:30 37.45880 -3.01819 21320 ft 435 kts 323°
2026-04-22 11:31 37.48382 -3.03982 21643 ft 437 kts 323°
2026-04-22 11:31 37.50893 -3.06155 22020 ft 438 kts 323°
2026-04-22 11:31 37.53407 -3.08332 22387 ft 439 kts 323°
2026-04-22 11:31 37.55926 -3.10515 22705 ft 441 kts 323°
2026-04-22 11:32 37.58461 -3.12713 22993 ft 443 kts 323°
2026-04-22 11:32 37.61005 -3.14921 23216 ft 445 kts 323°
2026-04-22 11:32 37.63557 -3.17140 23497 ft 445 kts 323°
2026-04-22 11:32 37.66112 -3.19362 23705 ft 447 kts 323°
2026-04-22 11:33 37.67805 -3.20835 23840 ft 447 kts 322°
2026-04-22 11:33 37.70368 -3.23067 24026 ft 448 kts 322°
2026-04-22 11:33 37.72935 -3.25305 24177 ft 449 kts 322°
2026-04-22 11:33 37.75507 -3.27548 24331 ft 450 kts 322°
2026-04-22 11:34 37.78084 -3.29798 24467 ft 451 kts 322°
2026-04-22 11:34 37.80665 -3.32054 24588 ft 451 kts 322°
2026-04-22 11:34 37.83247 -3.34312 24721 ft 452 kts 322°
2026-04-22 11:34 37.85834 -3.36577 24832 ft 453 kts 322°
2026-04-22 11:35 37.88425 -3.38847 24948 ft 453 kts 322°
2026-04-22 11:35 37.91022 -3.41124 25065 ft 454 kts 322°
2026-04-22 11:35 37.93622 -3.43407 25161 ft 455 kts 322°
2026-04-22 11:35 37.96226 -3.45694 25274 ft 456 kts 322°
2026-04-22 11:36 37.98833 -3.47986 25371 ft 456 kts 322°
2026-04-22 11:36 38.01443 -3.50283 25467 ft 457 kts 322°
2026-04-22 11:36 38.04054 -3.52582 25552 ft 458 kts 322°
2026-04-22 11:36 38.06670 -3.54889 25644 ft 458 kts 322°
2026-04-22 11:37 38.09290 -3.57200 25731 ft 459 kts 322°
2026-04-22 11:37 38.11922 -3.59497 25806 ft 460 kts 325°
2026-04-22 11:37 38.14836 -3.61210 25904 ft 466 kts 340°
2026-04-22 11:37 38.18047 -3.61916 25975 ft 473 kts 355°
2026-04-22 11:38 38.21348 -3.61774 26073 ft 476 kts
2026-04-22 11:38 38.24657 -3.61518 26120 ft 477 kts
2026-04-22 11:38 38.31281 -3.60922 26282 ft 478 kts
2026-04-22 11:39 38.34598 -3.60604 26352 ft 478 kts
2026-04-22 11:39 38.37920 -3.60283 26422 ft 479 kts
2026-04-22 11:39 38.41243 -3.59961 26486 ft 479 kts
2026-04-22 11:39 38.44568 -3.59639 26549 ft 479 kts
2026-04-22 11:40 38.47897 -3.59315 26596 ft 480 kts
2026-04-22 11:40 38.51228 -3.58992 26647 ft 480 kts
2026-04-22 11:40 38.54557 -3.58668 26699 ft 481 kts
2026-04-22 11:40 38.57894 -3.58343 26749 ft 481 kts
2026-04-22 11:41 38.61230 -3.58017 26794 ft 481 kts
2026-04-22 11:41 38.64568 -3.57692 26832 ft 482 kts
2026-04-22 11:41 38.67912 -3.57366 26877 ft 482 kts
2026-04-22 11:41 38.71261 -3.57038 26909 ft 482 kts
2026-04-22 11:42 38.74600 -3.56712 26954 ft 482 kts
2026-04-22 11:42 38.77954 -3.56383 26974 ft 483 kts
2026-04-22 11:42 38.81259 -3.56059 27016 ft 483 kts
2026-04-22 11:42 38.84648 -3.55727 27077 ft 483 kts
2026-04-22 11:43 38.88005 -3.55397 27116 ft 483 kts
2026-04-22 11:43 38.91305 -3.55073 27160 ft 483 kts
2026-04-22 11:43 38.94656 -3.54743 27198 ft 483 kts
2026-04-22 11:43 38.98009 -3.54413 27259 ft 483 kts
2026-04-22 11:44 39.01349 -3.54082 27303 ft 483 kts
2026-04-22 11:44 39.04702 -3.53749 27349 ft 482 kts
2026-04-22 11:44 39.08048 -3.53417 27412 ft 482 kts
2026-04-22 11:44 39.11394 -3.53084 27448 ft 482 kts
2026-04-22 11:45 39.14739 -3.52751 27475 ft 482 kts
2026-04-22 11:45 39.18082 -3.52418 27525 ft 482 kts
2026-04-22 11:45 39.21425 -3.52085 27572 ft 482 kts
2026-04-22 11:45 39.24763 -3.51751 27606 ft 482 kts
2026-04-22 11:46 39.28107 -3.51417 27643 ft 481 kts
2026-04-22 11:46 39.31447 -3.51083 27698 ft 481 kts
2026-04-22 11:46 39.34788 -3.50749 27725 ft 482 kts
2026-04-22 11:46 39.38125 -3.50414 27764 ft 481 kts
2026-04-22 11:47 39.41464 -3.50079 27805 ft 481 kts
2026-04-22 11:47 39.44801 -3.49744 27841 ft 481 kts
2026-04-22 11:47 39.48138 -3.49409 27878 ft 481 kts
2026-04-22 11:47 39.51473 -3.49074 27906 ft 481 kts
2026-04-22 11:48 39.54811 -3.48737 27967 ft 480 kts
2026-04-22 11:48 39.58141 -3.48404 28026 ft 480 kts
2026-04-22 11:48 39.64793 -3.47737 28101 ft 479 kts
2026-04-22 11:49 39.71446 -3.47069 28164 ft 479 kts
2026-04-22 11:49 39.78096 -3.46344 28222 ft 481 kts
2026-04-22 11:50 39.84700 -3.44942 28277 ft 481 kts
2026-04-22 11:50 39.91307 -3.43614 28342 ft 480 kts
2026-04-22 11:51 39.97891 -3.42304 28549 ft 476 kts
2026-04-22 11:51 40.04438 -3.41001 28626 ft 476 kts
2026-04-22 11:52 40.10980 -3.39695 28692 ft 476 kts
2026-04-22 11:52 40.17523 -3.38387 28753 ft 476 kts
2026-04-22 11:53 40.24066 -3.37076 28854 ft 474 kts
2026-04-22 11:53 40.30587 -3.35768 28918 ft 474 kts
2026-04-22 11:54 40.37106 -3.34457 28970 ft 474 kts
2026-04-22 11:54 40.43617 -3.33145 29034 ft 474 kts
2026-04-22 11:55 40.50087 -3.31838 29086 ft 473 kts
2026-04-22 11:55 40.56644 -3.30512 29130 ft 473 kts
2026-04-22 11:56 40.63103 -3.29203 29169 ft 473 kts
2026-04-22 11:56 40.69609 -3.27881 29218 ft 473 kts
2026-04-22 11:57 40.76108 -3.26559 29262 ft 473 kts
2026-04-22 11:57 40.82611 -3.25234 29312 ft 473 kts
2026-04-22 11:58 40.89102 -3.23812 29370 ft 473 kts
2026-04-22 11:58 40.95574 -3.22364 29430 ft 472 kts
2026-04-22 11:59 41.02055 -3.20914 29466 ft 472 kts
2026-04-22 11:59 41.08531 -3.19463 29495 ft 472 kts
2026-04-22 12:00 41.15047 -3.18001 29533 ft 472 kts
2026-04-22 12:00 41.21468 -3.16556 29579 ft 471 kts
2026-04-22 12:01 41.27938 -3.15098 29615 ft 471 kts
2026-04-22 12:01 41.34395 -3.13639 29669 ft 471 kts
2026-04-22 12:02 41.40857 -3.12176 29714 ft 471 kts
2026-04-22 12:02 41.47315 -3.10712 29751 ft 471 kts
2026-04-22 12:03 41.53778 -3.09241 29782 ft 471 kts
2026-04-22 12:03 41.60240 -3.07767 29768 ft 472 kts
2026-04-22 12:04 41.66718 -3.06286 29775 ft 472 kts
2026-04-22 12:04 41.73194 -3.04802 29801 ft 471 kts